Weather in Bobrov

Russia / Voronezh Oblast     51°26′16″N   38°31′40″E
temp.,
°C
wind,
m/s
gust,
m/s
humid.,
%
clouds,
%
prec.,
mm/h
press.,
hPa
HPBL,
m
31 july, sat
sat3100:00+19wnw34830 0.0 100857
03:00+17wnw23910 0.0 100933
06:00+18wnw25870 0.0 1009120
09:00+25wnw34500 0.0 1009843
12:00+29nw34355 0.0 10102188
15:00+30wnw44317 0.0 10092530
18:00+30nw44322 0.0 10102398
21:00+23n22492 0.0 101111
1 august, sun
sun100:00+21sse11513 0.0 101111
03:00+20w11563 0.0 101211
06:00+21se115710 0.0 101311
09:00+28sse23395 0.0 1013543
12:00+31s33293 0.0 10132634
15:00+33sse232519 0.0 10123168
18:00+32ese222776 0.0 10101936
21:00+25s49587 0.0 1011206
2 august, mon
mon200:00+21s22680 0.0 101217
03:00+20ssw33660 0.1 101233
06:00+22s366314 0.0 1012122
09:00+29s354215 0.0 1011557
12:00+33ssw583064 0.0 10102832
15:00+35sw79215 0.0 10083639
18:00+34sw5724100 0.0 10062670
21:00+23w235896 0.0 100742
3 august, tue
tue300:00+21w81673100 0.4 1009432
03:00+19sw41184100 0.8 1008340
06:00+19wsw51086100 0.1 1009347
09:00+24w566047 0.1 1009669
12:00+27w6742100 0.0 10101332
15:00+27w57386 0.0 10101819
18:00+25nw78420 0.0 10101299
21:00+19nnw376311 0.0 1013124
4 august, wed
wed400:00+17nnw22670 0.0 101413
03:00+16nw22741 0.0 101413
06:00+16nnw117319 0.0 101522
09:00+23wnw234937 0.0 1016973
12:00+24wsw544586 0.0 10161375
15:00+27wnw443399 0.0 10152558
18:00+26nw233211 0.0 10151929
21:00+19nne224585 0.0 101616